星链-1929 (STARLINK-1929 )

导读 | 豆包AI

STARLINK-1929是美国太空探索技术公司星链星座中的一颗卫星,于2020年10月24日发射升空,属于星链计划低轨互联网卫星组网的组成部分。它运行在近地轨道,旨在为全球用户提供高速卫星互联网接入服务,推动星链全球覆盖网络的构建进程,服务通信、导航等多元场景。

基本信息
目录编号:
46788
目录名称:
STARLINK-1929
国际标识:
2020-074BB
轨道中心:
EARTH
卫星名称:
星链-1929
卫星全名:
星链-1929 (STARLINK-1929 )
卫星状态:
已陨落 最后检测时间 2025-01-31
发射日期:
2020-10-24 UTC
国别 :
美国 (US)
星等 :
--
轨道信息
数据来源 国际轨道数据
星历时间: 2025-02-01T05:46:49+0800
轨道信息已过期406天
半长轴: 6526.073km
偏心率: 0.0024138
轨道倾角: 53.014°
近地点辐角 155.843°
升交点赤经 261.986°
平近点角 290.322°
近地点: 132.185km
远地点: 163.691km
周期: 87.446分钟
每日圈数: 16.467395
详细信息
固有亮度:
5
最大亮度:
2.5
卫星平台:
Starlink V1.0
覆盖范围:
全球
运营商:
太空探索技术公司
运营商所在国:
美国
制造商(研发单位):
太空探索技术公司
制造商所在国:
美国
使用方式:
暂无
卫星简介
星链(Starlink)计划是由太空探索技术公司(SpaceX)提出的一个巨型低轨卫星互联网星座项目,计划在2019年至2024年间在太空搭建由约1.2万颗卫星组成的“星链”网络,其中1584颗将部署在地球上空550千米处的近地轨道,并从2020年开始工作。该卫星仍在工作。